Regional Weather Roundup
Issued by NWS New Orleans/Baton Rouge, LA

Home | Current Version | Previous Version | Text Only | Print | Product List | Glossary On
Versions: 1 2 3 4 5 6 7 8 9 10 11 12 13 14 15 16 17 18 19 20 21 22 23 24 25 26 27 28 29 30 31 32 33 34 35 36 37 38 39 40 41 42 43 44 45 46 47 48 49 50
000
ASUS44 KLIX 250610
RWRLIX
NEW ORLEANS REGIONAL WEATHER ROUNDUP
NATIONAL WEATHER SERVICE NEW ORLEANS LA
100 AM CDT FRI APR 25 2014

NOTE: "FAIR" INDICATES FEW OR NO CLOUDS BELOW 12,000 FEET WITH NO
      SIGNIFICANT WEATHER AND/OR OBSTRUCTIONS TO VISIBILITY.
      SKY/WX - SKY CONDITION AND SIGNIFICANT WEATHER.
      TMP - AIR TEMPERATURE.     DP    - DEWPOINT TEMPERATURE.
      RH  - RELATIVE HUMIDITY.   PRES  - PRESSURE.
      HI  - HEAT INDEX.          WCI   - WIND CHILL INDEX.

*  THESE STATIONS ARE NOT NWS OR FAA STATIONS AND ARE NOT UNDER
   NWS QUALITY CONTROL.

LAZ038-040-048-061>063-065>067-069-250700-
SOUTHEAST LOUISIANA

CITY           SKY/WX    TMP DP  RH WIND       PRES   REMARKS
N.O. AUDUBON     N/A     73  67  83 MISG        N/A
6HR MIN TEMP:  71; 6HR MAX TEMP:  78;

N.O. INTL ARPT MOCLDY    69  67  93 W6        29.94S
6HR MIN TEMP:  69; 6HR MAX TEMP:  76;

N.O. LAKEFRONT CLOUDY    72  68  87 SW9       29.94F
6HR MIN TEMP:  71; 6HR MAX TEMP:  75;

N.O. DOWNTOWN* CLOUDY    73  64  73 SW3       29.94S
6HR MIN TEMP:  73; 6HR MAX TEMP:  79;

SLIDELL        CLOUDY    72  67  84 S5        29.92F
6HR MIN TEMP:  72; 6HR MAX TEMP:  76;

BATON ROUGE    CLOUDY    73  67  81 SW8       29.93S
6HR MIN TEMP:  73; 6HR MAX TEMP:  78;

BOOTHVILLE       N/A     72  69  90 S9        29.95F
6HR MIN TEMP:  72; 6HR MAX TEMP:  73;

BELLE CHASSE     N/A     69  65  86 SW5       29.92F
6HR MIN TEMP:  69; 6HR MAX TEMP:  75;

BOGALUSA*        N/A     73  66  80 SW5       29.94S
6HR MIN TEMP:  70; 6HR MAX TEMP:  78;

GALLIANO*      MOCLDY    74  69  85 S7        29.94S
6HR MIN TEMP:  73; 6HR MAX TEMP:  76;

NEW ROADS*     MOCLDY    71  66  85 CALM      29.92F
6HR MIN TEMP:  71; 6HR MAX TEMP:  77;

GONZALES*      CLOUDY    71  69  95 CALM      29.93S
6HR MIN TEMP:  71; 6HR MAX TEMP:  77;

HAMMOND*       CLOUDY    72  64  78 CALM      29.94F
HOUMA*           N/A     68  65  92 CALM      29.94S FOG
6HR MIN TEMP:  67; 6HR MAX TEMP:  75;

PORT FOURCHON*   N/A     73  70  88 S6        29.96F

$$

MSZ070-080>082-250700-
SOUTHERN MISSISSIPPI

CITY           SKY/WX    TMP DP  RH WIND       PRES   REMARKS
MCCOMB         MOCLDY    69  64  84 SW5       29.92F
6HR MIN TEMP:  69; 6HR MAX TEMP:  77;

GULFPORT       CLOUDY    74  68  81 VRB7      29.92F
6HR MIN TEMP:  74; 6HR MAX TEMP:  75;

BILOXI         CLOUDY    72  69  91 SW12      29.93S
6HR MIN TEMP:  72; 6HR MAX TEMP:  73;

PASCAGOULA     CLOUDY    71  68  90 VRB7      29.93F
6HR MIN TEMP:  68; 6HR MAX TEMP:  72;


$$

COASTAL OBSERVATIONS
LAKE AND NEARSHORE STATIONS

STATION/POSITION TIME  TEMP    WIND        PRES    WAVE
                       AIR SEA DIR/SP/G            HT/PER
                 (UTC) (F)     (DEG/KT/KT) (MB)    (FT/S)
PASCAGOULA       0600   72     210/ 12/ 15 1013.0
WAVELAND YACHT   0600   72 78  220/  7/  9 1012.6
GRAND ISLE       0600   72 73  200/  4/  8 1014.5
SOUTHWEST PASS   0600   69 61  200/  4/  5 1014.7
NEW CANAL        0600   72 71  240/  4/  5 1014.0
SHELL BEACH      0600   72 70  200/  7/ 11 1013.5

OFFSHORE STATIONS

STATION/POSITION TIME  TEMP    WIND        PRES    WAVE
                       AIR SEA DIR/SP/G            HT/PER
                 (UTC) (F)     (DEG/KT/KT) (MB)    (FT/S)
64 S DAUPHIN ISL 0518   72 72  220/  6/  8 1014.4

$$




USA.gov is the U.S. government's official web portal to all federal, state and local government web resources and services.